Location: Sceptre
(50.8619°N, 109.2670°W)
Time: 20:23:14
(UTC+00:00)

CUTE 1.7 + AOD 2 - Pass Details

Date: 02 July 2022
Orbit: 589 x 608 km, 97.7° (Epoch: 09 August)

Event Time Altitude Azimuth Distance (km) Brightness Sun altitude
Rises 10:19:05 0° 24° (NNE) 2,855 ? -6.4°
Reaches altitude 10° 10:21:40 10° 40° (NE) 1,943 ? -6.1°
Maximum altitude 10:25:00 22° 92° (E) 1,304 ? -5.8°
Drops below altitude 10° 10:28:18 10° 145° (SE) 1,922 ? -5.4°
Sets 10:30:50 0° 160° (SSE) 2,815 ? -5.2°
